Time,TemperatureF,DewpointF,PressureIn,WindDirection,WindDirectionDegrees,WindSpeedMPH,WindSpeedGustMPH,Humidity,HourlyPrecipIn,Conditions,Clouds,dailyrainin,SoftwareType,DateUTC
2013-02-01 00:00:00,23.6,19.7,29.83,North,0,0.4,0.4,85,0.00,,,0.03,WUHU216HW,2013-02-01 05:00:00,
2013-02-01 00:01:00,23.6,19.7,29.84,North,0,0.0,0.7,85,0.00,,,0.00,WUHU216HW,2013-02-01 05:01:00,
2013-02-01 00:02:00,23.6,19.7,29.84,West,270,0.7,0.7,85,0.00,,,0.00,WUHU216HW,2013-02-01 05:02:00,
2013-02-01 00:03:00,23.6,19.7,29.84,NNW,338,0.0,1.8,85,0.00,,,0.00,WUHU216HW,2013-02-01 05:03:00,
2013-02-01 00:08:00,23.4,19.5,29.83,North,0,0.4,1.8,85,0.00,,,0.00,WUHU216HW,2013-02-01 05:08:00,
2013-02-01 00:13:00,23.4,19.5,29.83,NNW,338,0.4,0.9,85,0.00,,,0.00,WUHU216HW,2013-02-01 05:13:00,
2013-02-01 00:18:00,23.2,19.1,29.84,WNW,293,0.2,2.7,84,0.00,,,0.00,WUHU216HW,2013-02-01 05:18:00,
2013-02-01 00:23:00,23.2,19.1,29.84,NW,315,0.4,2.7,84,0.00,,,0.00,WUHU216HW,2013-02-01 05:23:00,
2013-02-01 00:28:00,23.0,19.2,29.84,NW,315,1.1,2.5,85,0.00,,,0.00,WUHU216HW,2013-02-01 05:28:00,
2013-02-01 00:33:00,22.9,18.2,29.84,WNW,293,0.0,3.8,82,0.00,,,0.00,WUHU216HW,2013-02-01 05:33:00,
2013-02-01 00:38:00,22.9,17.6,29.84,NNW,338,0.0,3.8,80,0.00,,,0.00,WUHU216HW,2013-02-01 05:38:00,
2013-02-01 00:43:00,22.9,17.4,29.84,NW,315,1.1,2.9,79,0.00,,,0.00,WUHU216HW,2013-02-01 05:43:00,
2013-02-01 00:48:00,22.7,16.6,29.84,NNW,338,1.1,4.5,77,0.00,,,0.00,WUHU216HW,2013-02-01 05:48:00,
2013-02-01 00:53:00,22.7,16.6,29.84,North,0,1.1,5.1,77,0.00,,,0.00,WUHU216HW,2013-02-01 05:53:00,
2013-02-01 00:58:00,22.7,16.6,29.84,NW,315,1.1,5.1,77,0.00,,,0.00,WUHU216HW,2013-02-01 05:58:00,
2013-02-01 01:03:00,22.7,16.6,29.84,NW,315,1.8,3.6,77,0.00,,,0.00,WUHU216HW,2013-02-01 06:03:00,
2013-02-01 01:08:00,22.7,16.6,29.84,NNW,338,0.4,3.6,77,0.00,,,0.00,WUHU216HW,2013-02-01 06:08:00,
2013-02-01 01:13:00,22.7,16.6,29.84,NW,315,0.7,2.5,77,0.00,,,0.00,WUHU216HW,2013-02-01 06:13:00,
2013-02-01 01:18:00,22.5,16.4,29.84,NNW,338,0.4,1.6,77,0.00,,,0.00,WUHU216HW,2013-02-01 06:18:00,
2013-02-01 01:23:00,22.5,16.4,29.84,NW,315,0.2,2.0,77,0.00,,,0.00,WUHU216HW,2013-02-01 06:23:00,
2013-02-01 01:28:00,22.3,16.2,29.84,NNW,338,2.0,2.7,77,0.00,,,0.00,WUHU216HW,2013-02-01 06:28:00,
2013-02-01 01:33:00,22.3,16.5,29.84,North,0,2.5,4.3,78,0.00,,,0.00,WUHU216HW,2013-02-01 06:33:00,
2013-02-01 01:38:00,22.1,16.3,29.84,NNW,338,2.5,4.3,78,0.00,,,0.00,WUHU216HW,2013-02-01 06:38:00,
2013-02-01 01:43:00,22.0,16.7,29.84,North,0,3.1,4.0,80,0.00,,,0.00,WUHU216HW,2013-02-01 06:43:00,
2013-02-01 01:48:00,21.4,15.9,29.85,NW,315,1.1,4.0,79,0.00,,,0.00,WUHU216HW,2013-02-01 06:48:00,
2013-02-01 01:53:00,21.1,15.8,29.85,NW,315,1.6,4.0,80,0.00,,,0.00,WUHU216HW,2013-02-01 06:53:00,
2013-02-01 01:58:00,20.9,15.7,29.86,NW,315,3.4,3.8,80,0.00,,,0.00,WUHU216HW,2013-02-01 06:58:00,
2013-02-01 02:03:00,20.9,15.7,29.86,WNW,293,1.1,3.8,80,0.00,,,0.00,WUHU216HW,2013-02-01 07:03:00,
2013-02-01 02:08:00,20.5,15.0,29.86,NW,315,0.9,5.4,79,0.00,,,0.00,WUHU216HW,2013-02-01 07:08:00,
2013-02-01 02:13:00,20.5,15.0,29.86,NNW,338,1.8,5.4,79,0.00,,,0.00,WUHU216HW,2013-02-01 07:13:00,
2013-02-01 02:18:00,20.3,14.2,29.86,NW,315,6.9,6.9,77,0.00,,,0.00,WUHU216HW,2013-02-01 07:18:00,
2013-02-01 02:23:00,20.0,13.9,29.86,NW,315,1.6,6.9,77,0.00,,,0.00,WUHU216HW,2013-02-01 07:23:00,
2013-02-01 02:28:00,20.0,13.9,29.86,NW,315,1.3,6.9,77,0.00,,,0.00,WUHU216HW,2013-02-01 07:28:00,
2013-02-01 02:33:00,20.0,13.9,29.86,NW,315,2.5,5.1,77,0.00,,,0.00,WUHU216HW,2013-02-01 07:33:00,
2013-02-01 02:38:00,19.8,13.1,29.86,North,0,4.0,8.7,75,0.00,,,0.00,WUHU216HW,2013-02-01 07:38:00,
2013-02-01 02:43:00,19.8,13.1,29.86,NNW,338,0.4,8.7,75,0.00,,,0.00,WUHU216HW,2013-02-01 07:43:00,
2013-02-01 02:48:00,19.6,12.9,29.86,NW,315,0.9,5.8,75,0.00,,,0.00,WUHU216HW,2013-02-01 07:48:00,
2013-02-01 02:53:00,19.6,12.9,29.86,NW,315,0.0,5.8,75,0.00,,,0.00,WUHU216HW,2013-02-01 07:53:00,
2013-02-01 02:58:00,19.6,12.6,29.86,NW,315,1.1,3.6,74,0.00,,,0.00,WUHU216HW,2013-02-01 07:58:00,
2013-02-01 03:03:00,19.4,12.4,29.87,WNW,293,3.4,4.0,74,0.00,,,0.00,WUHU216HW,2013-02-01 08:03:00,
2013-02-01 03:08:00,19.4,12.7,29.87,West,270,2.5,4.9,75,0.00,,,0.00,WUHU216HW,2013-02-01 08:08:00,
2013-02-01 03:13:00,19.3,12.5,29.88,NW,315,0.9,5.6,75,0.00,,,0.00,WUHU216HW,2013-02-01 08:13:00,
2013-02-01 03:18:00,19.1,13.2,29.88,NW,315,0.9,5.6,78,0.00,,,0.00,WUHU216HW,2013-02-01 08:18:00,
2013-02-01 03:23:00,19.1,13.6,29.89,WNW,293,1.1,4.5,79,0.00,,,0.00,WUHU216HW,2013-02-01 08:23:00,
2013-02-01 03:28:00,18.9,14.0,29.89,NNW,338,2.9,4.5,81,0.00,,,0.00,WUHU216HW,2013-02-01 08:28:00,
2013-02-01 03:33:00,18.7,14.0,29.89,NW,315,2.0,3.8,82,0.00,,,0.00,WUHU216HW,2013-02-01 08:33:00,
2013-02-01 03:38:00,18.5,13.9,29.89,WSW,248,2.5,5.8,82,0.00,,,0.00,WUHU216HW,2013-02-01 08:38:00,
2013-02-01 03:43:00,18.4,13.7,29.89,NNW,338,1.6,6.9,82,0.00,,,0.00,WUHU216HW,2013-02-01 08:43:00,
2013-02-01 03:48:00,18.2,13.8,29.90,NW,315,0.4,6.9,83,0.00,,,0.00,WUHU216HW,2013-02-01 08:48:00,
2013-02-01 03:53:00,18.0,13.6,29.90,NW,315,0.9,5.4,83,0.00,,,0.00,WUHU216HW,2013-02-01 08:53:00,
2013-02-01 03:58:00,18.0,13.6,29.91,NW,315,2.2,4.7,83,0.00,,,0.00,WUHU216HW,2013-02-01 08:58:00,
2013-02-01 04:03:00,18.0,13.6,29.91,North,0,4.5,4.5,83,0.00,,,0.00,WUHU216HW,2013-02-01 09:03:00,
2013-02-01 04:08:00,17.8,13.1,29.91,WNW,293,3.1,4.5,82,0.00,,,0.00,WUHU216HW,2013-02-01 09:08:00,
2013-02-01 04:13:00,17.6,11.9,29.91,WNW,293,1.1,4.5,78,0.00,,,0.00,WUHU216HW,2013-02-01 09:13:00,
2013-02-01 04:18:00,17.6,11.3,29.92,NNW,338,1.1,4.5,76,0.00,,,0.00,WUHU216HW,2013-02-01 09:18:00,
2013-02-01 04:23:00,17.6,10.7,29.92,NNW,338,1.3,4.9,74,0.00,,,0.00,WUHU216HW,2013-02-01 09:23:00,
2013-02-01 04:28:00,17.5,9.6,29.93,WNW,293,1.1,4.9,71,0.00,,,0.00,WUHU216HW,2013-02-01 09:28:00,
2013-02-01 04:33:00,17.3,9.2,29.93,NW,315,1.3,7.2,70,0.00,,,0.00,WUHU216HW,2013-02-01 09:33:00,
2013-02-01 04:38:00,16.9,8.8,29.93,WNW,293,1.3,7.2,70,0.00,,,0.00,WUHU216HW,2013-02-01 09:38:00,
2013-02-01 04:43:00,16.9,9.1,29.94,NNW,338,0.2,6.9,71,0.00,,,0.00,WUHU216HW,2013-02-01 09:43:00,
2013-02-01 04:48:00,16.7,8.9,29.94,NW,315,0.4,4.9,71,0.00,,,0.00,WUHU216HW,2013-02-01 09:48:00,
2013-02-01 04:53:00,16.6,8.5,29.95,NW,315,1.8,5.8,70,0.00,,,0.00,WUHU216HW,2013-02-01 09:53:00,
2013-02-01 04:58:00,16.6,8.7,29.95,West,270,1.3,5.8,71,0.00,,,0.00,WUHU216HW,2013-02-01 09:58:00,
2013-02-01 05:03:00,16.6,8.5,29.95,WNW,293,0.2,8.1,70,0.00,,,0.00,WUHU216HW,2013-02-01 10:03:00,
2013-02-01 05:08:00,16.4,8.3,29.96,NW,315,1.1,8.1,70,0.00,,,0.00,WUHU216HW,2013-02-01 10:08:00,
2013-02-01 05:13:00,16.4,8.3,29.96,NW,315,2.5,3.8,70,0.00,,,0.00,WUHU216HW,2013-02-01 10:13:00,
2013-02-01 05:18:00,16.4,8.3,29.96,WNW,293,1.6,4.9,70,0.00,,,0.00,WUHU216HW,2013-02-01 10:18:00,
2013-02-01 05:23:00,16.4,8.6,29.97,West,270,0.4,4.9,71,0.00,,,0.00,WUHU216HW,2013-02-01 10:23:00,
2013-02-01 05:28:00,16.2,8.4,29.97,NW,315,0.9,3.1,71,0.00,,,0.00,WUHU216HW,2013-02-01 10:28:00,
2013-02-01 05:33:00,16.2,8.4,29.97,WNW,293,2.2,4.3,71,0.00,,,0.00,WUHU216HW,2013-02-01 10:33:00,
2013-02-01 05:38:00,16.2,8.4,29.98,NW,315,1.6,6.9,71,0.00,,,0.00,WUHU216HW,2013-02-01 10:38:00,
2013-02-01 05:43:00,16.2,8.7,29.98,WNW,293,0.9,6.9,72,0.00,,,0.00,WUHU216HW,2013-02-01 10:43:00,
2013-02-01 05:48:00,16.2,8.7,29.99,NW,315,0.0,6.0,72,0.00,,,0.00,WUHU216HW,2013-02-01 10:48:00,
2013-02-01 05:53:00,16.2,8.7,29.99,NW,315,1.8,3.4,72,0.00,,,0.00,WUHU216HW,2013-02-01 10:53:00,
2013-02-01 05:58:00,15.8,8.0,29.99,NW,315,2.5,5.4,71,0.00,,,0.00,WUHU216HW,2013-02-01 10:58:00,
2013-02-01 06:03:00,15.8,8.0,30.00,West,270,1.6,8.3,71,0.00,,,0.00,WUHU216HW,2013-02-01 11:03:00,
2013-02-01 06:08:00,15.8,8.0,30.00,NNW,338,1.1,8.3,71,0.00,,,0.00,WUHU216HW,2013-02-01 11:08:00,
2013-02-01 06:13:00,15.7,7.9,30.01,NNW,338,1.8,3.6,71,0.00,,,0.00,WUHU216HW,2013-02-01 11:13:00,
2013-02-01 06:18:00,15.7,7.9,30.02,WNW,293,1.1,4.7,71,0.00,,,0.00,WUHU216HW,2013-02-01 11:18:00,
2013-02-01 06:23:00,15.8,8.0,30.02,NW,315,4.7,4.7,71,0.00,,,0.00,WUHU216HW,2013-02-01 11:23:00,
2013-02-01 06:28:00,15.7,7.9,30.02,West,270,1.3,5.8,71,0.00,,,0.00,WUHU216HW,2013-02-01 11:28:00,
2013-02-01 06:33:00,15.7,7.9,30.03,NNW,338,0.4,5.8,71,0.00,,,0.00,WUHU216HW,2013-02-01 11:33:00,
2013-02-01 06:38:00,15.7,7.9,30.03,WNW,293,0.7,2.9,71,0.00,,,0.00,WUHU216HW,2013-02-01 11:38:00,
2013-02-01 06:43:00,15.5,7.8,30.03,NW,315,1.3,4.3,71,0.00,,,0.00,WUHU216HW,2013-02-01 11:43:00,
2013-02-01 06:48:00,15.7,7.9,30.03,WNW,293,1.6,4.3,71,0.00,,,0.00,WUHU216HW,2013-02-01 11:48:00,
2013-02-01 06:53:00,15.7,7.9,30.04,West,270,0.4,3.4,71,0.00,,,0.00,WUHU216HW,2013-02-01 11:53:00,
2013-02-01 06:58:00,15.5,7.8,30.04,NW,315,0.0,3.4,71,0.00,,,0.00,WUHU216HW,2013-02-01 11:58:00,
2013-02-01 07:03:00,15.5,7.8,30.05,WNW,293,1.8,2.7,71,0.00,,,0.00,WUHU216HW,2013-02-01 12:03:00,
2013-02-01 07:08:00,15.5,7.8,30.05,NW,315,1.1,6.3,71,0.00,,,0.00,WUHU216HW,2013-02-01 12:08:00,
2013-02-01 07:13:00,15.5,7.8,30.05,NW,315,2.7,6.3,71,0.00,,,0.00,WUHU216HW,2013-02-01 12:13:00,
2013-02-01 07:18:00,15.5,7.8,30.06,NW,315,0.0,4.7,71,0.00,,,0.00,WUHU216HW,2013-02-01 12:18:00,
2013-02-01 07:23:00,15.5,7.8,30.06,NNW,338,2.2,3.4,71,0.00,,,0.00,WUHU216HW,2013-02-01 12:23:00,
2013-02-01 07:28:00,15.5,7.8,30.07,NW,315,0.2,3.6,71,0.00,,,0.00,WUHU216HW,2013-02-01 12:28:00,
2013-02-01 07:33:00,15.5,7.8,30.07,NW,315,0.0,3.6,71,0.00,,,0.00,WUHU216HW,2013-02-01 12:33:00,
2013-02-01 07:38:00,15.5,7.8,30.07,WNW,293,3.1,5.4,71,0.00,,,0.00,WUHU216HW,2013-02-01 12:38:00,
2013-02-01 07:43:00,15.5,7.8,30.08,NNW,338,3.4,5.4,71,0.00,,,0.00,WUHU216HW,2013-02-01 12:43:00,
2013-02-01 07:48:00,15.5,7.8,30.08,NW,315,2.5,5.4,71,0.00,,,0.00,WUHU216HW,2013-02-01 12:48:00,
2013-02-01 07:53:00,15.3,7.3,30.09,NW,315,0.4,5.6,70,0.00,,,0.00,WUHU216HW,2013-02-01 12:53:00,
2013-02-01 07:58:00,15.5,7.8,30.09,WNW,293,0.0,5.6,71,0.00,,,0.00,WUHU216HW,2013-02-01 12:58:00,
2013-02-01 08:03:00,15.3,6.9,30.09,NW,315,1.6,4.3,69,0.00,,,0.00,WUHU216HW,2013-02-01 13:03:00,
2013-02-01 08:08:00,15.3,7.3,30.09,WNW,293,0.4,6.3,70,0.00,,,0.00,WUHU216HW,2013-02-01 13:08:00,
2013-02-01 08:13:00,15.5,7.8,30.09,West,270,3.4,6.3,71,0.00,,,0.00,WUHU216HW,2013-02-01 13:13:00,
2013-02-01 08:18:00,15.5,7.4,30.09,WSW,248,1.6,5.4,70,0.00,,,0.00,WUHU216HW,2013-02-01 13:18:00,
2013-02-01 08:23:00,15.5,7.4,30.10,North,0,0.9,5.8,70,0.00,,,0.00,WUHU216HW,2013-02-01 13:23:00,
2013-02-01 08:28:00,15.7,7.6,30.10,West,270,2.5,5.8,70,0.00,,,0.00,WUHU216HW,2013-02-01 13:28:00,
2013-02-01 08:33:00,15.8,7.7,30.10,WNW,293,1.1,4.0,70,0.00,,,0.00,WUHU216HW,2013-02-01 13:33:00,
2013-02-01 08:38:00,15.7,7.6,30.11,North,0,0.9,3.4,70,0.00,,,0.00,WUHU216HW,2013-02-01 13:38:00,
2013-02-01 08:43:00,15.5,7.4,30.11,West,270,6.5,6.5,70,0.00,,,0.00,WUHU216HW,2013-02-01 13:43:00,
2013-02-01 08:48:00,15.5,7.8,30.12,WNW,293,1.1,6.5,71,0.00,,,0.00,WUHU216HW,2013-02-01 13:48:00,
2013-02-01 08:53:00,15.7,7.9,30.12,West,270,0.4,6.5,71,0.00,,,0.00,WUHU216HW,2013-02-01 13:53:00,
2013-02-01 08:58:00,15.8,8.0,30.12,NNW,338,5.8,5.8,71,0.00,,,0.00,WUHU216HW,2013-02-01 13:58:00,
2013-02-01 09:03:00,15.8,8.0,30.12,WNW,293,2.2,5.8,71,0.00,,,0.00,WUHU216HW,2013-02-01 14:03:00,
2013-02-01 09:08:00,16.2,8.4,30.12,NW,315,1.8,5.8,71,0.00,,,0.00,WUHU216HW,2013-02-01 14:08:00,
2013-02-01 09:13:00,16.4,8.6,30.12,WNW,293,3.4,3.4,71,0.00,,,0.00,WUHU216HW,2013-02-01 14:13:00,
2013-02-01 09:18:00,16.0,8.6,30.13,WSW,248,3.4,6.0,72,0.00,,,0.00,WUHU216HW,2013-02-01 14:18:00,
2013-02-01 09:23:00,16.0,8.2,30.13,NW,315,6.0,6.0,71,0.00,,,0.00,WUHU216HW,2013-02-01 14:23:00,
2013-02-01 09:28:00,15.8,8.4,30.14,WNW,293,2.7,7.6,72,0.00,,,0.00,WUHU216HW,2013-02-01 14:28:00,
2013-02-01 09:33:00,16.2,8.4,30.14,NW,315,2.5,7.6,71,0.00,,,0.00,WUHU216HW,2013-02-01 14:33:00,
2013-02-01 09:38:00,16.2,7.7,30.14,WSW,248,2.5,6.0,69,0.00,,,0.00,WUHU216HW,2013-02-01 14:38:00,
2013-02-01 09:43:00,16.2,7.7,30.14,WNW,293,1.3,6.0,69,0.00,,,0.00,WUHU216HW,2013-02-01 14:43:00,
2013-02-01 09:48:00,16.2,8.1,30.15,WNW,293,1.8,6.0,70,0.00,,,0.00,WUHU216HW,2013-02-01 14:48:00,
2013-02-01 09:53:00,16.2,8.4,30.15,West,270,0.2,6.0,71,0.00,,,0.00,WUHU216HW,2013-02-01 14:53:00,
2013-02-01 09:58:00,16.2,9.3,30.15,West,270,0.9,4.7,74,0.00,,,0.00,WUHU216HW,2013-02-01 14:58:00,
2013-02-01 10:03:00,16.4,9.5,30.15,NW,315,4.9,4.9,74,0.00,,,0.00,WUHU216HW,2013-02-01 15:03:00,
2013-02-01 10:08:00,16.2,9.3,30.15,WSW,248,0.7,5.1,74,0.00,,,0.00,WUHU216HW,2013-02-01 15:08:00,
2013-02-01 10:13:00,16.2,9.3,30.16,WNW,293,0.2,5.1,74,0.00,,,0.00,WUHU216HW,2013-02-01 15:13:00,
2013-02-01 10:18:00,16.4,9.2,30.16,WNW,293,0.2,3.4,73,0.00,,,0.00,WUHU216HW,2013-02-01 15:18:00,
2013-02-01 10:23:00,16.2,8.4,30.16,NW,315,1.3,3.6,71,0.00,,,0.00,WUHU216HW,2013-02-01 15:23:00,
2013-02-01 10:28:00,16.4,8.6,30.17,NNW,338,0.9,3.6,71,0.00,,,0.00,WUHU216HW,2013-02-01 15:28:00,
2013-02-01 10:33:00,16.6,8.1,30.17,WSW,248,0.4,5.6,69,0.00,,,0.00,WUHU216HW,2013-02-01 15:33:00,
2013-02-01 10:38:00,16.7,8.3,30.17,WSW,248,1.8,5.6,69,0.00,,,0.00,WUHU216HW,2013-02-01 15:38:00,
2013-02-01 10:43:00,16.9,8.5,30.17,WNW,293,0.2,4.3,69,0.00,,,0.00,WUHU216HW,2013-02-01 15:43:00,
2013-02-01 10:48:00,17.1,8.6,30.18,NW,315,1.8,2.7,69,0.00,,,0.00,WUHU216HW,2013-02-01 15:48:00,
2013-02-01 10:53:00,17.5,8.6,30.18,NW,315,3.4,6.0,68,0.00,,,0.00,WUHU216HW,2013-02-01 15:53:00,
2013-02-01 10:58:00,17.3,8.5,30.19,SW,225,1.8,6.0,68,0.00,,,0.00,WUHU216HW,2013-02-01 15:58:00,
2013-02-01 11:03:00,16.9,7.8,30.19,NNW,338,1.8,4.0,67,0.00,,,0.00,WUHU216HW,2013-02-01 16:03:00,
2013-02-01 11:08:00,16.6,7.1,30.19,WNW,293,2.7,6.9,66,0.00,,,0.00,WUHU216HW,2013-02-01 16:08:00,
2013-02-01 11:13:00,16.2,6.8,30.19,NW,315,1.6,6.9,66,0.00,,,0.00,WUHU216HW,2013-02-01 16:13:00,
2013-02-01 11:18:00,16.2,6.8,30.20,West,270,2.2,3.4,66,0.00,,,0.00,WUHU216HW,2013-02-01 16:18:00,
2013-02-01 11:23:00,16.2,6.4,30.19,North,0,2.7,4.5,65,0.00,,,0.00,WUHU216HW,2013-02-01 16:23:00,
2013-02-01 11:28:00,16.2,7.1,30.20,WSW,248,0.9,4.5,67,0.00,,,0.00,WUHU216HW,2013-02-01 16:28:00,
2013-02-01 11:33:00,16.6,7.5,30.20,West,270,3.4,3.4,67,0.00,,,0.00,WUHU216HW,2013-02-01 16:33:00,
2013-02-01 11:38:00,16.0,6.6,30.20,WSW,248,1.1,5.8,66,0.00,,,0.00,WUHU216HW,2013-02-01 16:38:00,
2013-02-01 11:43:00,16.2,6.8,30.20,West,270,2.0,5.8,66,0.00,,,0.00,WUHU216HW,2013-02-01 16:43:00,
2013-02-01 11:48:00,16.6,7.1,30.20,WSW,248,2.5,4.9,66,0.00,,,0.00,WUHU216HW,2013-02-01 16:48:00,
2013-02-01 11:53:00,16.7,7.3,30.20,WSW,248,1.8,4.9,66,0.00,,,0.00,WUHU216HW,2013-02-01 16:53:00,
2013-02-01 11:58:00,16.6,7.1,30.20,West,270,0.4,4.3,66,0.00,,,0.00,WUHU216HW,2013-02-01 16:58:00,
2013-02-01 12:03:00,16.6,6.8,30.20,WSW,248,2.2,8.1,65,0.00,,,0.00,WUHU216HW,2013-02-01 17:03:00,
2013-02-01 12:08:00,16.9,7.1,30.20,West,270,1.3,8.1,65,0.00,,,0.00,WUHU216HW,2013-02-01 17:08:00,
2013-02-01 12:13:00,17.1,7.3,30.20,WNW,293,1.6,3.8,65,0.00,,,0.00,WUHU216HW,2013-02-01 17:13:00,
2013-02-01 12:18:00,16.9,6.4,30.21,SW,225,0.4,4.0,63,0.00,,,0.00,WUHU216HW,2013-02-01 17:18:00,
2013-02-01 12:23:00,17.5,8.0,30.21,West,270,0.2,4.9,66,0.00,,,0.00,WUHU216HW,2013-02-01 17:23:00,
2013-02-01 12:28:00,17.6,8.8,30.21,WSW,248,1.8,4.9,68,0.00,,,0.00,WUHU216HW,2013-02-01 17:28:00,
2013-02-01 12:33:00,17.6,9.2,30.21,WSW,248,0.4,3.1,69,0.00,,,0.00,WUHU216HW,2013-02-01 17:33:00,
2013-02-01 12:38:00,17.6,9.2,30.21,West,270,0.7,3.4,69,0.00,,,0.00,WUHU216HW,2013-02-01 17:38:00,
2013-02-01 12:43:00,17.6,9.2,30.21,WNW,293,1.1,3.4,69,0.00,,,0.00,WUHU216HW,2013-02-01 17:43:00,
2013-02-01 12:48:00,18.0,9.2,30.21,West,270,0.4,2.5,68,0.00,,,0.00,WUHU216HW,2013-02-01 17:48:00,
2013-02-01 12:53:00,18.5,9.4,30.21,NW,315,1.1,3.4,67,0.00,,,0.00,WUHU216HW,2013-02-01 17:53:00,
2013-02-01 12:58:00,19.4,9.5,30.21,West,270,1.1,4.5,65,0.00,,,0.00,WUHU216HW,2013-02-01 17:58:00,
2013-02-01 13:03:00,18.4,8.1,30.21,NNW,338,1.1,4.5,64,0.00,,,0.00,WUHU216HW,2013-02-01 18:03:00,
2013-02-01 13:08:00,17.6,7.5,30.21,SW,225,1.3,4.3,64,0.00,,,0.00,WUHU216HW,2013-02-01 18:08:00,
2013-02-01 13:13:00,18.2,8.3,30.20,WSW,248,3.1,4.3,65,0.00,,,0.00,WUHU216HW,2013-02-01 18:13:00,
2013-02-01 13:18:00,18.4,7.8,30.21,NNW,338,2.0,4.7,63,0.00,,,0.00,WUHU216HW,2013-02-01 18:18:00,
2013-02-01 13:23:00,18.0,7.1,30.21,West,270,2.5,4.7,62,0.00,,,0.00,WUHU216HW,2013-02-01 18:23:00,
2013-02-01 13:28:00,19.1,8.1,30.21,WNW,293,3.4,5.1,62,0.00,,,0.00,WUHU216HW,2013-02-01 18:28:00,
2013-02-01 13:33:00,19.4,8.1,30.21,NNW,338,1.8,5.1,61,0.00,,,0.00,WUHU216HW,2013-02-01 18:33:00,
2013-02-01 13:38:00,19.1,7.7,30.21,West,270,1.1,6.3,61,0.00,,,0.00,WUHU216HW,2013-02-01 18:38:00,
2013-02-01 13:43:00,18.9,7.6,30.21,WNW,293,0.9,6.3,61,0.00,,,0.00,WUHU216HW,2013-02-01 18:43:00,
2013-02-01 13:48:00,19.1,7.7,30.21,West,270,3.6,4.7,61,0.00,,,0.00,WUHU216HW,2013-02-01 18:48:00,
2013-02-01 13:53:00,19.4,8.1,30.21,West,270,1.3,4.7,61,0.00,,,0.00,WUHU216HW,2013-02-01 18:53:00,
2013-02-01 13:58:00,19.1,7.7,30.21,WNW,293,2.5,3.6,61,0.00,,,0.00,WUHU216HW,2013-02-01 18:58:00,
2013-02-01 14:03:00,18.9,7.9,30.22,WNW,293,1.8,3.4,62,0.00,,,0.00,WUHU216HW,2013-02-01 19:03:00,
2013-02-01 14:08:00,18.2,6.9,30.22,WSW,248,1.1,4.7,61,0.00,,,0.00,WUHU216HW,2013-02-01 19:08:00,
2013-02-01 14:13:00,18.4,7.5,30.22,NW,315,1.6,4.7,62,0.00,,,0.00,WUHU216HW,2013-02-01 19:13:00,
2013-02-01 14:18:00,18.9,8.3,30.22,WSW,248,1.1,5.6,63,0.00,,,0.00,WUHU216HW,2013-02-01 19:18:00,
2013-02-01 14:23:00,18.4,7.1,30.22,West,270,1.3,6.9,61,0.00,,,0.00,WUHU216HW,2013-02-01 19:23:00,
2013-02-01 14:28:00,18.2,6.9,30.22,NW,315,5.4,6.9,61,0.00,,,0.00,WUHU216HW,2013-02-01 19:28:00,
2013-02-01 14:33:00,18.2,7.3,30.22,WNW,293,4.0,6.3,62,0.00,,,0.00,WUHU216HW,2013-02-01 19:33:00,
2013-02-01 14:38:00,18.4,7.5,30.23,WNW,293,0.7,6.3,62,0.00,,,0.00,WUHU216HW,2013-02-01 19:38:00,
2013-02-01 14:43:00,18.5,7.7,30.23,West,270,0.9,5.1,62,0.00,,,0.00,WUHU216HW,2013-02-01 19:43:00,
2013-02-01 14:48:00,18.7,7.5,30.23,NW,315,0.2,5.1,61,0.00,,,0.00,WUHU216HW,2013-02-01 19:48:00,
2013-02-01 14:53:00,18.2,6.9,30.23,West,270,2.0,5.4,61,0.00,,,0.00,WUHU216HW,2013-02-01 19:53:00,
2013-02-01 14:58:00,18.2,6.9,30.23,West,270,0.9,5.4,61,0.00,,,0.00,WUHU216HW,2013-02-01 19:58:00,
2013-02-01 15:03:00,18.0,6.8,30.23,WNW,293,0.9,4.3,61,0.00,,,0.00,WUHU216HW,2013-02-01 20:03:00,
2013-02-01 15:08:00,17.8,6.7,30.24,West,270,1.1,4.3,61,0.00,,,0.00,WUHU216HW,2013-02-01 20:08:00,
2013-02-01 15:13:00,17.6,6.5,30.24,WNW,293,2.9,11.0,61,0.00,,,0.00,WUHU216HW,2013-02-01 20:13:00,
2013-02-01 15:18:00,17.6,6.9,30.24,WNW,293,0.4,11.0,62,0.00,,,0.00,WUHU216HW,2013-02-01 20:18:00,
2013-02-01 15:23:00,17.5,6.7,30.24,NNW,338,1.1,3.4,62,0.00,,,0.00,WUHU216HW,2013-02-01 20:23:00,
2013-02-01 15:28:00,17.5,6.7,30.24,WNW,293,0.2,3.1,62,0.00,,,0.00,WUHU216HW,2013-02-01 20:28:00,
2013-02-01 15:33:00,17.6,7.1,30.24,WSW,248,1.1,2.7,63,0.00,,,0.00,WUHU216HW,2013-02-01 20:33:00,
2013-02-01 15:38:00,18.0,7.5,30.25,WNW,293,2.7,4.5,63,0.00,,,0.00,WUHU216HW,2013-02-01 20:38:00,
2013-02-01 15:43:00,17.6,6.9,30.24,SW,225,2.5,5.4,62,0.00,,,0.00,WUHU216HW,2013-02-01 20:43:00,
2013-02-01 15:48:00,17.6,7.1,30.25,WSW,248,2.0,5.4,63,0.00,,,0.00,WUHU216HW,2013-02-01 20:48:00,
2013-02-01 15:53:00,17.6,7.1,30.25,WNW,293,0.0,3.1,63,0.00,,,0.00,WUHU216HW,2013-02-01 20:53:00,
2013-02-01 15:58:00,17.6,7.1,30.25,WNW,293,0.9,2.2,63,0.00,,,0.00,WUHU216HW,2013-02-01 20:58:00,
2013-02-01 16:03:00,17.6,7.1,30.25,West,270,0.7,2.2,63,0.00,,,0.00,WUHU216HW,2013-02-01 21:03:00,
2013-02-01 16:08:00,17.5,6.9,30.25,West,270,1.3,3.8,63,0.00,,,0.00,WUHU216HW,2013-02-01 21:08:00,
2013-02-01 16:13:00,17.5,6.9,30.25,WSW,248,2.0,3.8,63,0.00,,,0.00,WUHU216HW,2013-02-01 21:13:00,
2013-02-01 16:18:00,17.6,7.1,30.25,NW,315,0.4,2.7,63,0.00,,,0.00,WUHU216HW,2013-02-01 21:18:00,
2013-02-01 16:23:00,17.5,6.9,30.26,West,270,0.4,3.4,63,0.00,,,0.00,WUHU216HW,2013-02-01 21:23:00,
2013-02-01 16:29:00,17.3,6.8,30.26,SSW,203,1.1,3.4,63,0.00,,,0.00,WUHU216HW,2013-02-01 21:29:00,
2013-02-01 16:33:00,17.1,6.6,30.26,West,270,2.5,3.4,63,0.00,,,0.00,WUHU216HW,2013-02-01 21:33:00,
2013-02-01 16:38:00,16.9,6.4,30.26,WSW,248,1.1,4.9,63,0.00,,,0.00,WUHU216HW,2013-02-01 21:38:00,
2013-02-01 16:43:00,17.3,7.1,30.26,SW,225,5.8,5.8,64,0.00,,,0.00,WUHU216HW,2013-02-01 21:43:00,
2013-02-01 16:49:00,17.1,6.6,30.26,West,270,1.8,5.8,63,0.00,,,0.00,WUHU216HW,2013-02-01 21:49:00,
2013-02-01 16:53:00,17.1,6.9,30.26,NW,315,0.4,5.8,64,0.00,,,0.00,WUHU216HW,2013-02-01 21:53:00,
2013-02-01 16:58:00,16.9,6.1,30.26,NW,315,6.7,6.7,62,0.00,,,0.00,WUHU216HW,2013-02-01 21:58:00,
2013-02-01 17:03:00,16.6,5.8,30.26,West,270,3.1,8.1,62,0.00,,,0.00,WUHU216HW,2013-02-01 22:03:00,
2013-02-01 17:08:00,16.4,5.9,30.27,West,270,1.3,8.1,63,0.00,,,0.00,WUHU216HW,2013-02-01 22:08:00,
2013-02-01 17:13:00,16.4,5.9,30.27,WNW,293,1.8,3.8,63,0.00,,,0.00,WUHU216HW,2013-02-01 22:13:00,
2013-02-01 17:18:00,16.2,5.7,30.27,West,270,0.4,3.8,63,0.00,,,0.00,WUHU216HW,2013-02-01 22:18:00,
2013-02-01 17:23:00,16.0,5.5,30.27,WNW,293,0.2,3.1,63,0.00,,,0.00,WUHU216HW,2013-02-01 22:23:00,
2013-02-01 17:28:00,16.0,5.5,30.27,West,270,0.9,2.7,63,0.00,,,0.00,WUHU216HW,2013-02-01 22:28:00,
2013-02-01 17:33:00,15.8,5.3,30.27,NNW,338,1.1,2.7,63,0.00,,,0.00,WUHU216HW,2013-02-01 22:33:00,
2013-02-01 17:38:00,15.8,5.3,30.28,WSW,248,0.2,2.0,63,0.00,,,0.00,WUHU216HW,2013-02-01 22:38:00,
2013-02-01 17:43:00,15.8,5.7,30.28,WSW,248,0.7,2.0,64,0.00,,,0.00,WUHU216HW,2013-02-01 22:43:00,
2013-02-01 17:49:00,15.5,5.1,30.28,WSW,248,1.1,3.1,63,0.00,,,0.00,WUHU216HW,2013-02-01 22:49:00,
2013-02-01 17:54:00,15.3,4.9,30.28,WNW,293,0.4,3.6,63,0.00,,,0.00,WUHU216HW,2013-02-01 22:54:00,
2013-02-01 17:59:00,15.3,4.9,30.28,West,270,0.9,3.6,63,0.00,,,0.00,WUHU216HW,2013-02-01 22:59:00,
2013-02-01 18:04:00,15.1,4.7,30.28,West,270,0.0,2.2,63,0.00,,,0.00,WUHU216HW,2013-02-01 23:04:00,
2013-02-01 18:09:00,15.3,4.9,30.29,West,270,1.8,2.5,63,0.00,,,0.00,WUHU216HW,2013-02-01 23:09:00,
2013-02-01 18:14:00,15.3,4.9,30.29,WNW,293,0.7,4.0,63,0.00,,,0.00,WUHU216HW,2013-02-01 23:14:00,
2013-02-01 18:19:00,15.3,4.5,30.29,West,270,0.9,4.0,62,0.00,,,0.00,WUHU216HW,2013-02-01 23:19:00,
2013-02-01 18:24:00,15.3,4.5,30.29,West,270,2.2,4.5,62,0.00,,,0.00,WUHU216HW,2013-02-01 23:24:00,
2013-02-01 18:29:00,15.3,4.5,30.30,WSW,248,1.8,4.5,62,0.00,,,0.00,WUHU216HW,2013-02-01 23:29:00,
2013-02-01 18:34:00,15.3,4.5,30.30,WNW,293,1.6,3.4,62,0.00,,,0.00,WUHU216HW,2013-02-01 23:34:00,
2013-02-01 18:39:00,15.1,4.3,30.30,SW,225,0.7,3.4,62,0.00,,,0.00,WUHU216HW,2013-02-01 23:39:00,
2013-02-01 18:44:00,15.1,4.3,30.30,WNW,293,0.4,2.7,62,0.00,,,0.00,WUHU216HW,2013-02-01 23:44:00,
2013-02-01 18:49:00,15.1,4.3,30.30,West,270,2.2,3.6,62,0.00,,,0.00,WUHU216HW,2013-02-01 23:49:00,
2013-02-01 18:54:00,14.9,4.2,30.30,West,270,0.9,3.6,62,0.00,,,0.00,WUHU216HW,2013-02-01 23:54:00,
2013-02-01 18:59:00,14.8,4.1,30.31,SW,225,0.7,3.4,62,0.00,,,0.00,WUHU216HW,2013-02-01 23:59:00,
2013-02-01 19:04:00,14.8,4.1,30.30,West,270,1.8,4.0,62,0.00,,,0.00,WUHU216HW,2013-02-02 00:04:00,
2013-02-01 19:09:00,14.8,4.1,30.31,West,270,0.2,4.0,62,0.00,,,0.00,WUHU216HW,2013-02-02 00:09:00,
2013-02-01 19:14:00,14.6,3.9,30.31,NW,315,0.4,2.2,62,0.00,,,0.00,WUHU216HW,2013-02-02 00:14:00,
2013-02-01 19:19:00,14.4,3.3,30.31,NW,315,0.4,1.6,61,0.00,,,0.00,WUHU216HW,2013-02-02 00:19:00,
2013-02-01 19:24:00,14.4,3.3,30.31,WNW,293,0.4,3.1,61,0.00,,,0.00,WUHU216HW,2013-02-02 00:24:00,
2013-02-01 19:29:00,14.4,3.3,30.31,WSW,248,0.7,3.1,61,0.00,,,0.00,WUHU216HW,2013-02-02 00:29:00,
2013-02-01 19:34:00,14.4,3.7,30.31,WNW,293,0.2,4.0,62,0.00,,,0.00,WUHU216HW,2013-02-02 00:34:00,
2013-02-01 19:39:00,14.4,3.7,30.32,NW,315,0.9,4.0,62,0.00,,,0.00,WUHU216HW,2013-02-02 00:39:00,
2013-02-01 19:44:00,14.2,3.3,30.32,NW,315,0.4,1.6,61,0.00,,,0.00,WUHU216HW,2013-02-02 00:44:00,
2013-02-01 19:49:00,14.0,3.1,30.32,West,270,1.1,1.6,61,0.00,,,0.00,WUHU216HW,2013-02-02 00:49:00,
2013-02-01 19:54:00,13.9,2.5,30.32,WNW,293,0.4,2.2,60,0.00,,,0.00,WUHU216HW,2013-02-02 00:54:00,
2013-02-01 19:59:00,13.9,2.9,30.32,SSW,203,1.1,2.2,61,0.00,,,0.00,WUHU216HW,2013-02-02 00:59:00,
2013-02-01 20:04:00,13.7,2.7,30.32,NW,315,0.4,2.2,61,0.00,,,0.00,WUHU216HW,2013-02-02 01:04:00,
2013-02-01 20:09:00,13.7,3.1,30.32,NW,315,0.4,2.2,62,0.00,,,0.00,WUHU216HW,2013-02-02 01:09:00,
2013-02-01 20:14:00,13.5,2.5,30.32,West,270,1.1,2.2,61,0.00,,,0.00,WUHU216HW,2013-02-02 01:14:00,
2013-02-01 20:19:00,13.3,2.7,30.32,NW,315,0.7,2.2,62,0.00,,,0.00,WUHU216HW,2013-02-02 01:19:00,
2013-02-01 20:24:00,13.3,2.7,30.33,NW,315,0.4,3.8,62,0.00,,,0.00,WUHU216HW,2013-02-02 01:24:00,
2013-02-01 20:29:00,13.3,3.0,30.33,NW,315,2.2,3.8,63,0.00,,,0.00,WUHU216HW,2013-02-02 01:29:00,
2013-02-01 20:34:00,13.1,2.8,30.33,WSW,248,0.0,2.2,63,0.00,,,0.00,WUHU216HW,2013-02-02 01:34:00,
2013-02-01 20:39:00,13.0,2.6,30.33,WSW,248,1.1,2.2,63,0.00,,,0.00,WUHU216HW,2013-02-02 01:39:00,
2013-02-01 20:44:00,13.0,3.0,30.33,West,270,0.4,2.0,64,0.00,,,0.00,WUHU216HW,2013-02-02 01:44:00,
2013-02-01 20:49:00,12.8,2.8,30.33,NNW,338,0.7,2.0,64,0.00,,,0.00,WUHU216HW,2013-02-02 01:49:00,
2013-02-01 20:54:00,12.8,3.2,30.33,West,270,0.4,1.6,65,0.00,,,0.00,WUHU216HW,2013-02-02 01:54:00,
2013-02-01 20:59:00,12.6,3.0,30.33,West,270,0.0,0.7,65,0.00,,,0.00,WUHU216HW,2013-02-02 01:59:00,
2013-02-01 21:04:00,12.6,3.0,30.33,West,270,0.2,0.4,65,0.00,,,0.00,WUHU216HW,2013-02-02 02:04:00,
2013-02-01 21:09:00,12.6,3.0,30.33,SW,225,0.4,0.9,65,0.00,,,0.00,WUHU216HW,2013-02-02 02:09:00,
2013-02-01 21:14:00,12.4,2.8,30.33,SW,225,0.0,0.9,65,0.00,,,0.00,WUHU216HW,2013-02-02 02:14:00,
2013-02-01 21:19:00,12.2,3.0,30.33,SW,225,0.0,0.4,66,0.00,,,0.00,WUHU216HW,2013-02-02 02:19:00,
2013-02-01 21:24:00,12.2,3.0,30.33,SW,225,0.0,1.8,66,0.00,,,0.00,WUHU216HW,2013-02-02 02:24:00,
2013-02-01 21:29:00,12.1,3.2,30.33,WSW,248,0.4,1.8,67,0.00,,,0.00,WUHU216HW,2013-02-02 02:29:00,
2013-02-01 21:34:00,11.9,2.6,30.33,West,270,0.0,1.1,66,0.00,,,0.00,WUHU216HW,2013-02-02 02:34:00,
2013-02-01 21:39:00,11.9,2.6,30.33,NW,315,0.4,1.1,66,0.00,,,0.00,WUHU216HW,2013-02-02 02:39:00,
2013-02-01 21:44:00,11.9,2.6,30.33,West,270,0.4,1.1,66,0.00,,,0.00,WUHU216HW,2013-02-02 02:44:00,
2013-02-01 21:49:00,11.9,3.0,30.34,WSW,248,0.0,1.1,67,0.00,,,0.00,WUHU216HW,2013-02-02 02:49:00,
2013-02-01 21:54:00,11.7,3.2,30.34,WNW,293,0.2,1.6,68,0.00,,,0.00,WUHU216HW,2013-02-02 02:54:00,
2013-02-01 21:59:00,11.7,3.2,30.34,WNW,293,0.2,1.6,68,0.00,,,0.00,WUHU216HW,2013-02-02 02:59:00,
2013-02-01 22:04:00,11.7,3.2,30.34,ESE,113,0.2,2.0,68,0.00,,,0.00,WUHU216HW,2013-02-02 03:04:00,
2013-02-01 22:09:00,11.7,3.2,30.34,West,270,0.0,2.0,68,0.00,,,0.00,WUHU216HW,2013-02-02 03:09:00,
2013-02-01 22:14:00,11.5,3.0,30.34,West,270,0.0,0.4,68,0.00,,,0.00,WUHU216HW,2013-02-02 03:14:00,
2013-02-01 22:19:00,11.5,3.0,30.34,WNW,293,0.9,0.9,68,0.00,,,0.00,WUHU216HW,2013-02-02 03:19:00,
2013-02-01 22:24:00,11.3,2.8,30.34,West,270,0.2,1.8,68,0.00,,,0.00,WUHU216HW,2013-02-02 03:24:00,
2013-02-01 22:29:00,11.3,2.8,30.34,West,270,0.0,1.8,68,0.00,,,0.00,WUHU216HW,2013-02-02 03:29:00,
2013-02-01 22:34:00,11.3,2.8,30.34,West,270,0.0,1.1,68,0.00,,,0.00,WUHU216HW,2013-02-02 03:34:00,
2013-02-01 22:39:00,11.3,2.8,30.34,NW,315,0.4,1.1,68,0.00,,,0.00,WUHU216HW,2013-02-02 03:39:00,
2013-02-01 22:44:00,11.2,2.9,30.34,WNW,293,0.0,0.7,69,0.00,,,0.00,WUHU216HW,2013-02-02 03:44:00,
2013-02-01 22:49:00,11.2,2.9,30.33,West,270,0.4,1.3,69,0.00,,,0.00,WUHU216HW,2013-02-02 03:49:00,
2013-02-01 22:54:00,11.2,2.9,30.33,West,270,0.2,1.3,69,0.00,,,0.00,WUHU216HW,2013-02-02 03:54:00,
2013-02-01 22:59:00,11.0,3.1,30.33,WNW,293,0.2,1.1,70,0.00,,,0.00,WUHU216HW,2013-02-02 03:59:00,
2013-02-01 23:04:00,11.0,3.1,30.33,West,270,0.0,1.1,70,0.00,,,0.00,WUHU216HW,2013-02-02 04:04:00,
2013-02-01 23:09:00,11.0,3.1,30.33,WSW,248,0.2,1.8,70,0.00,,,0.00,WUHU216HW,2013-02-02 04:09:00,
2013-02-01 23:14:00,11.0,3.1,30.33,SW,225,0.2,1.8,70,0.00,,,0.00,WUHU216HW,2013-02-02 04:14:00,
2013-02-01 23:19:00,10.8,2.9,30.33,WSW,248,1.1,2.7,70,0.00,,,0.00,WUHU216HW,2013-02-02 04:19:00,
2013-02-01 23:24:00,10.8,2.9,30.33,WSW,248,0.0,2.7,70,0.00,,,0.00,WUHU216HW,2013-02-02 04:24:00,
2013-02-01 23:29:00,10.6,2.7,30.33,SW,225,0.0,1.1,70,0.00,,,0.00,WUHU216HW,2013-02-02 04:29:00,
2013-02-01 23:34:00,10.6,2.7,30.33,WSW,248,0.0,0.4,70,0.00,,,0.00,WUHU216HW,2013-02-02 04:34:00,
2013-02-01 23:39:00,10.4,2.5,30.33,WSW,248,0.0,0.4,70,0.00,,,0.00,WUHU216HW,2013-02-02 04:39:00,
2013-02-01 23:44:00,10.4,2.8,30.33,WSW,248,0.0,2.2,71,0.00,,,0.00,WUHU216HW,2013-02-02 04:44:00,
2013-02-01 23:49:00,10.4,2.8,30.33,WSW,248,0.2,2.2,71,0.00,,,0.00,WUHU216HW,2013-02-02 04:49:00,
2013-02-01 23:54:00,10.4,2.8,30.33,WSW,248,0.0,1.8,71,0.00,,,0.00,WUHU216HW,2013-02-02 04:54:00,
2013-02-01 23:59:00,10.4,2.8,30.32,WSW,248,0.0,1.1,71,0.00,,,0.00,WUHU216HW,2013-02-02 04:59:00,